FDB242 OMDB-LGSR

Flight info

Callsign FDB242
Flight time N/A
Altitude 36000
Route SENPA N571 ALPOB L768 VATIM DCT MENLI L677 CVO DCT NOZ L617 TANSA UL617 SIT L607 GIVIS
Aircraft B38M/M-SDE1FGHILORVWXY/HB1

Departure

Time N/A
Airport Dubai International Airport (OMDB)

Arrival

Time 2026-05-06 20:24
Airport Santorini International Airport (LGSR)
Time Latitude Longitude Altitude Speed Heading
2026-05-06 16:18 26.18592 51.95790 33939 ft 431 kts 292°
2026-05-06 16:18 26.19918 51.92806 34134 ft 430 kts 291°
2026-05-06 16:19 26.21238 51.89819 34326 ft 429 kts 291°
2026-05-06 16:19 26.22555 51.86838 34517 ft 429 kts 291°
2026-05-06 16:19 26.23872 51.83856 34723 ft 428 kts 291°
2026-05-06 16:19 26.25188 51.80886 34944 ft 427 kts 291°
2026-05-06 16:20 26.26508 51.77926 35161 ft 426 kts 291°
2026-05-06 16:20 26.27822 51.74977 35380 ft 424 kts 291°
2026-05-06 16:20 26.29131 51.72035 35591 ft 423 kts 291°
2026-05-06 16:20 26.30436 51.69102 35773 ft 422 kts 291°
2026-05-06 16:21 26.33045 51.63248 35825 ft 421 kts 291°
2026-05-06 16:21 26.35644 51.57414 35850 ft 420 kts 291°
2026-05-06 16:22 26.38103 51.51526 35841 ft 415 kts 284°
2026-05-06 16:22 26.40064 51.45487 35836 ft 414 kts 284°
2026-05-06 16:23 26.42000 51.39441 35840 ft 414 kts 284°
2026-05-06 16:23 26.43935 51.33390 35849 ft 414 kts 284°
2026-05-06 16:24 26.45855 51.27379 35840 ft 414 kts 284°
2026-05-06 16:24 26.47799 51.21287 35840 ft 414 kts 284°
2026-05-06 16:25 26.49715 51.15275 35857 ft 414 kts 284°
2026-05-06 16:25 26.51637 51.09234 35836 ft 412 kts 284°
2026-05-06 16:26 26.53551 51.03206 35838 ft 412 kts 284°
2026-05-06 16:26 26.55465 50.97171 35840 ft 412 kts 284°
2026-05-06 16:27 26.57368 50.91134 35837 ft 412 kts 283°
2026-05-06 16:27 26.59245 50.85088 35841 ft 412 kts 283°
2026-05-06 16:28 26.61126 50.79029 35843 ft 413 kts 283°
2026-05-06 16:28 26.63001 50.72976 35837 ft 411 kts 283°
2026-05-06 16:29 26.64835 50.66927 35846 ft 411 kts 283°
2026-05-06 16:29 26.66637 50.60863 35845 ft 411 kts 283°
2026-05-06 16:30 26.68138 50.55815 35851 ft 412 kts 282°
2026-05-06 16:30 26.70220 50.48708 35849 ft 410 kts 281°
2026-05-06 16:31 26.71797 50.42582 35850 ft 410 kts 281°
2026-05-06 16:31 26.73385 50.36464 35856 ft 408 kts 280°
2026-05-06 16:32 26.74968 50.30368 35859 ft 408 kts 280°
2026-05-06 16:32 26.76702 50.24305 35864 ft 410 kts 282°
2026-05-06 16:33 26.78502 50.18252 35864 ft 410 kts 282°
2026-05-06 16:34 26.81174 50.09212 35865 ft 410 kts 282°
2026-05-06 16:34 26.82959 50.03158 35859 ft 410 kts 282°
2026-05-06 16:35 26.84750 49.97114 35860 ft 408 kts 282°
2026-05-06 16:35 26.86537 49.91084 35863 ft 408 kts 282°
2026-05-06 16:36 26.88320 49.85057 35857 ft 408 kts 282°
2026-05-06 16:36 26.90103 49.79021 35859 ft 408 kts 282°
2026-05-06 16:37 26.91882 49.72987 35859 ft 408 kts 282°
2026-05-06 16:37 26.93660 49.66944 35857 ft 408 kts 282°
2026-05-06 16:38 26.95434 49.60904 35855 ft 407 kts 281°
2026-05-06 16:38 26.97201 49.54878 35855 ft 407 kts 281°
2026-05-06 16:39 26.98967 49.48848 35856 ft 407 kts 281°
2026-05-06 16:39 27.00733 49.42807 35862 ft 408 kts 282°
2026-05-06 16:40 27.03334 49.37048 35857 ft 418 kts 291°
2026-05-06 16:40 27.06166 49.31358 35874 ft 418 kts 291°
2026-05-06 16:41 27.08540 49.26631 35861 ft 418 kts 291°
2026-05-06 16:41 27.11399 49.20939 35871 ft 419 kts 291°
2026-05-06 16:42 27.14257 49.15244 35881 ft 419 kts 291°
2026-05-06 16:42 27.17113 49.09545 35880 ft 419 kts 291°
2026-05-06 16:43 27.19971 49.03835 35894 ft 420 kts 291°
2026-05-06 16:43 27.22833 48.98109 35878 ft 420 kts 291°
2026-05-06 16:44 27.25690 48.92379 35880 ft 420 kts 291°
2026-05-06 16:44 27.28544 48.86650 35892 ft 420 kts 291°
2026-05-06 16:45 27.31861 48.79982 35893 ft 420 kts 291°
2026-05-06 16:45 27.34247 48.75180 35901 ft 419 kts 290°
2026-05-06 16:46 27.37083 48.69462 35901 ft 419 kts 290°
2026-05-06 16:46 27.39920 48.63737 35910 ft 419 kts 290°
2026-05-06 16:47 27.42754 48.58010 35907 ft 419 kts 290°
2026-05-06 16:47 27.45567 48.52318 35936 ft 419 kts 290°
2026-05-06 16:48 27.48388 48.46601 35912 ft 417 kts 290°
2026-05-06 16:48 27.51203 48.40890 35921 ft 417 kts 290°
2026-05-06 16:49 27.54014 48.35179 35927 ft 417 kts 290°
2026-05-06 16:49 27.56824 48.29464 35924 ft 417 kts 290°
2026-05-06 16:50 27.59633 48.23751 35933 ft 416 kts 290°
2026-05-06 16:50 27.62432 48.18055 35933 ft 415 kts 290°
2026-05-06 16:51 27.65231 48.12349 35934 ft 416 kts 290°
2026-05-06 16:51 27.68028 48.06642 35933 ft 416 kts 290°
2026-05-06 16:52 27.70817 48.00931 35941 ft 416 kts 289°
2026-05-06 16:52 27.73601 47.95220 35935 ft 415 kts 289°
2026-05-06 16:53 27.76382 47.89509 35939 ft 415 kts 289°
2026-05-06 16:53 27.79160 47.83794 35939 ft 415 kts 289°
2026-05-06 16:54 27.81939 47.78072 35933 ft 416 kts 289°
2026-05-06 16:54 27.84559 47.72276 35923 ft 405 kts 279°
2026-05-06 16:55 27.86431 47.66273 35941 ft 406 kts 281°
2026-05-06 16:55 27.88305 47.60260 35939 ft 406 kts 280°
2026-05-06 16:56 27.90174 47.54236 35941 ft 407 kts 280°
2026-05-06 16:56 27.92042 47.48199 35942 ft 407 kts 280°
2026-05-06 16:57 27.93895 47.42201 35962 ft 407 kts 280°
2026-05-06 16:57 27.95755 47.36171 35948 ft 406 kts 280°
2026-05-06 16:58 27.97616 47.30129 35945 ft 407 kts 280°
2026-05-06 16:58 27.99474 47.24083 35950 ft 407 kts 280°
2026-05-06 16:59 28.01330 47.18033 35955 ft 407 kts 280°
2026-05-06 16:59 28.03183 47.11980 35959 ft 407 kts 280°
2026-05-06 17:00 28.05035 47.05922 35952 ft 407 kts 280°
2026-05-06 17:00 28.06882 46.99870 35960 ft 407 kts 280°
2026-05-06 17:01 28.08729 46.93810 35964 ft 407 kts 279°
2026-05-06 17:01 28.10613 46.87751 35960 ft 410 kts 281°
2026-05-06 17:02 28.12640 46.81718 35961 ft 410 kts 281°
2026-05-06 17:02 28.14649 46.75685 35971 ft 409 kts 281°
2026-05-06 17:03 28.16653 46.69655 35967 ft 409 kts 281°
2026-05-06 17:03 28.18654 46.63623 35978 ft 409 kts 281°
2026-05-06 17:04 28.20655 46.57582 35976 ft 409 kts 281°
2026-05-06 17:04 28.22650 46.51546 35982 ft 409 kts 281°
2026-05-06 17:05 28.24642 46.45510 35982 ft 409 kts 281°
2026-05-06 17:05 28.26632 46.39470 35977 ft 409 kts 281°
2026-05-06 17:06 28.28604 46.33474 35992 ft 408 kts 281°
2026-05-06 17:06 28.30586 46.27437 35997 ft 408 kts 281°
2026-05-06 17:07 28.32566 46.21399 35992 ft 408 kts 281°
2026-05-06 17:07 28.34540 46.15367 35994 ft 407 kts 281°
2026-05-06 17:08 28.36662 46.09381 35998 ft 411 kts 283°
2026-05-06 17:08 28.38896 46.03412 35993 ft 410 kts 283°
2026-05-06 17:09 28.41116 45.97437 35993 ft 410 kts 283°
2026-05-06 17:09 28.43337 45.91452 36009 ft 412 kts 283°
2026-05-06 17:10 28.45556 45.85461 35999 ft 411 kts 283°
2026-05-06 17:10 28.47770 45.79472 36001 ft 411 kts 283°
2026-05-06 17:11 28.49983 45.73479 35999 ft 411 kts 283°
2026-05-06 17:11 28.52194 45.67478 36002 ft 412 kts 283°
2026-05-06 17:12 28.54388 45.61517 35995 ft 411 kts 283°
2026-05-06 17:12 28.56591 45.55521 36004 ft 411 kts 283°
2026-05-06 17:13 28.58792 45.49519 35996 ft 411 kts 283°
2026-05-06 17:13 28.60991 45.43515 35996 ft 411 kts 283°
2026-05-06 17:14 28.63188 45.37506 36018 ft 411 kts 283°
2026-05-06 17:14 28.65382 45.31495 35998 ft 411 kts 283°
2026-05-06 17:15 28.67574 45.25480 35993 ft 411 kts 283°
2026-05-06 17:15 28.69764 45.19462 35996 ft 411 kts 283°
2026-05-06 17:16 28.71953 45.13435 35999 ft 412 kts 283°
2026-05-06 17:16 28.74141 45.07401 35994 ft 412 kts 283°
2026-05-06 17:17 28.76324 45.01371 35999 ft 412 kts 283°
2026-05-06 17:17 28.78506 44.95334 36005 ft 412 kts 283°
2026-05-06 17:18 28.80685 44.89295 35995 ft 412 kts 283°
2026-05-06 17:18 28.82864 44.83249 35998 ft 412 kts 283°
2026-05-06 17:19 28.85041 44.77202 35993 ft 412 kts 283°
2026-05-06 17:19 28.85952 44.74146 35974 ft 399 kts 271°
2026-05-06 17:19 28.86343 44.71046 36004 ft 396 kts 271°
2026-05-06 17:20 28.87153 44.64822 35991 ft 396 kts 270°
2026-05-06 17:20 28.87913 44.58586 36000 ft 397 kts 270°
2026-05-06 17:21 28.88657 44.52352 35995 ft 397 kts 270°
2026-05-06 17:21 28.89398 44.46114 35966 ft 397 kts 270°
2026-05-06 17:22 28.90136 44.39869 36013 ft 398 kts 270°
2026-05-06 17:22 28.90872 44.33626 35995 ft 397 kts 270°
2026-05-06 17:23 28.91604 44.27381 35995 ft 397 kts 270°
2026-05-06 17:23 28.92334 44.21138 36011 ft 397 kts 270°
2026-05-06 17:24 28.93059 44.14901 35995 ft 396 kts 270°
2026-05-06 17:24 28.93782 44.08665 35996 ft 396 kts 270°
2026-05-06 17:25 28.94501 44.02429 36023 ft 396 kts 270°
2026-05-06 17:25 28.95217 43.96202 35997 ft 395 kts 270°
2026-05-06 17:26 28.95929 43.89978 35996 ft 395 kts 270°
2026-05-06 17:26 28.96638 43.83753 35991 ft 395 kts 270°
2026-05-06 17:27 28.97344 43.77536 35998 ft 394 kts 270°
2026-05-06 17:27 28.98041 43.71366 35986 ft 395 kts 270°
2026-05-06 17:28 28.98741 43.65144 35991 ft 395 kts 270°
2026-05-06 17:28 28.99439 43.58924 36002 ft 394 kts 270°
2026-05-06 17:29 29.00131 43.52719 35997 ft 394 kts 270°
2026-05-06 17:29 29.00820 43.46513 36001 ft 394 kts 270°
2026-05-06 17:30 29.01508 43.40303 36011 ft 395 kts 270°
2026-05-06 17:30 29.02078 43.35126 36007 ft 395 kts 270°
2026-05-06 17:31 29.02762 43.28895 36000 ft 395 kts 270°
2026-05-06 17:31 29.03444 43.22658 36010 ft 396 kts 270°
2026-05-06 17:32 29.04125 43.16397 36008 ft 398 kts 270°
2026-05-06 17:32 29.04806 43.10114 36004 ft 398 kts 270°
2026-05-06 17:33 29.05483 43.03835 36005 ft 398 kts 270°
2026-05-06 17:33 29.06159 42.97543 36005 ft 401 kts 270°
2026-05-06 17:34 29.06836 42.91207 36006 ft 401 kts 270°
2026-05-06 17:34 29.07510 42.84876 36009 ft 401 kts 270°
2026-05-06 17:35 29.08181 42.78541 36005 ft 402 kts 270°
2026-05-06 17:35 29.08849 42.72202 36008 ft 402 kts 270°
2026-05-06 17:36 29.09846 42.62697 36011 ft 401 kts 270°
2026-05-06 17:36 29.10507 42.56348 36020 ft 403 kts 270°
2026-05-06 17:37 29.11169 42.49976 36017 ft 403 kts 270°
2026-05-06 17:37 29.11827 42.43601 36021 ft 404 kts 270°
2026-05-06 17:38 29.12482 42.37228 36027 ft 404 kts 270°
2026-05-06 17:38 29.13135 42.30847 36022 ft 404 kts 270°
2026-05-06 17:39 29.13784 42.24465 36008 ft 405 kts 270°
2026-05-06 17:39 29.14434 42.18056 36053 ft 405 kts 270°
2026-05-06 17:40 29.15073 42.11720 36028 ft 403 kts 270°
2026-05-06 17:40 29.15713 42.05338 36028 ft 404 kts 270°
2026-05-06 17:41 29.16350 41.98954 36026 ft 403 kts 270°
2026-05-06 17:41 29.16982 41.92598 36033 ft 400 kts 270°
2026-05-06 17:42 29.17608 41.86267 36034 ft 401 kts 270°
2026-05-06 17:42 29.18232 41.79930 36028 ft 401 kts 270°
2026-05-06 17:43 29.18852 41.73597 36055 ft 399 kts 270°
2026-05-06 17:43 29.19466 41.67299 36036 ft 398 kts 270°
2026-05-06 17:44 29.20077 41.60992 36039 ft 398 kts 270°
2026-05-06 17:44 29.20686 41.54689 36071 ft 398 kts 270°
2026-05-06 17:45 29.21289 41.48404 36034 ft 396 kts 270°
2026-05-06 17:45 29.21888 41.42132 36048 ft 396 kts 270°
2026-05-06 17:46 29.22484 41.35857 36046 ft 397 kts 270°
2026-05-06 17:46 29.23078 41.29584 36052 ft 396 kts 270°
2026-05-06 17:47 29.23668 41.23316 36056 ft 396 kts 270°
2026-05-06 17:47 29.24255 41.17044 36053 ft 396 kts 270°
2026-05-06 17:48 29.24838 41.10778 36066 ft 396 kts 270°
2026-05-06 17:48 29.25421 41.04497 36059 ft 397 kts 270°
2026-05-06 17:49 29.26000 40.98215 36058 ft 397 kts 270°
2026-05-06 17:49 29.26576 40.91926 36060 ft 397 kts 270°
2026-05-06 17:50 29.27147 40.85675 36063 ft 398 kts 270°
2026-05-06 17:50 29.27719 40.79367 36058 ft 398 kts 270°
2026-05-06 17:51 29.28288 40.73064 36063 ft 398 kts 270°
2026-05-06 17:51 29.28855 40.66755 36055 ft 398 kts 270°
2026-05-06 17:52 29.29417 40.60455 36061 ft 398 kts 270°
2026-05-06 17:52 29.29977 40.54155 36061 ft 397 kts 270°
2026-05-06 17:53 29.30534 40.47855 36066 ft 398 kts 270°
2026-05-06 17:53 29.31089 40.41534 36069 ft 400 kts 270°
2026-05-06 17:54 29.31643 40.35200 36070 ft 400 kts 270°
2026-05-06 17:54 29.32193 40.28863 36068 ft 399 kts 270°
2026-05-06 17:55 29.32741 40.22528 36068 ft 400 kts 270°
2026-05-06 17:55 29.33287 40.16173 36067 ft 401 kts 270°
2026-05-06 17:56 29.33831 40.09812 36056 ft 401 kts 270°
2026-05-06 17:56 29.34372 40.03453 36058 ft 401 kts 270°
2026-05-06 17:57 29.34910 39.97085 36064 ft 402 kts 270°
2026-05-06 17:57 29.35446 39.90704 36045 ft 402 kts 270°
2026-05-06 17:58 29.35979 39.84322 36054 ft 402 kts 270°
2026-05-06 17:58 29.36509 39.77938 36063 ft 403 kts 270°
2026-05-06 17:59 29.37037 39.71546 36058 ft 403 kts 270°
2026-05-06 17:59 29.37562 39.65153 36046 ft 403 kts 270°
2026-05-06 18:00 29.38084 39.58758 36046 ft 403 kts 270°
2026-05-06 18:00 29.38598 39.52410 36056 ft 403 kts 270°
2026-05-06 18:01 29.39114 39.46016 36053 ft 403 kts 270°
2026-05-06 18:01 29.39627 39.39617 36053 ft 403 kts 270°
2026-05-06 18:02 29.40137 39.33215 36076 ft 403 kts 270°
2026-05-06 18:02 29.40643 39.26815 36049 ft 403 kts 270°
2026-05-06 18:03 29.41147 39.20413 36048 ft 403 kts 270°
2026-05-06 18:03 29.41648 39.14007 36045 ft 403 kts 270°
2026-05-06 18:04 29.42146 39.07595 36048 ft 404 kts 270°
2026-05-06 18:04 29.42642 39.01173 36044 ft 404 kts 270°
2026-05-06 18:05 29.43135 38.94750 36042 ft 404 kts 270°
2026-05-06 18:05 29.43625 38.88322 36042 ft 405 kts 271°
2026-05-06 18:06 29.44113 38.81877 36043 ft 406 kts 271°
2026-05-06 18:06 29.44599 38.75427 36036 ft 406 kts 271°
2026-05-06 18:07 29.45081 38.68976 36028 ft 406 kts 271°
2026-05-06 18:07 29.45561 38.62519 36028 ft 407 kts 271°
2026-05-06 18:08 29.46040 38.56034 36027 ft 408 kts 271°
2026-05-06 18:08 29.46515 38.49547 36027 ft 408 kts 271°
2026-05-06 18:09 29.46988 38.43056 36023 ft 408 kts 271°
2026-05-06 18:09 29.47457 38.36570 36023 ft 408 kts 271°
2026-05-06 18:10 29.47920 38.30120 36020 ft 408 kts 271°
2026-05-06 18:10 29.48383 38.23631 35995 ft 408 kts 271°
2026-05-06 18:11 29.48769 38.18193 36020 ft 408 kts 271°
2026-05-06 18:11 29.49301 38.10634 36019 ft 409 kts 271°
2026-05-06 18:12 29.49756 38.04119 36014 ft 409 kts 271°
2026-05-06 18:12 29.50208 37.97605 36009 ft 409 kts 271°
2026-05-06 18:13 29.50657 37.91090 36010 ft 410 kts 271°
2026-05-06 18:13 29.51104 37.84557 36003 ft 410 kts 271°
2026-05-06 18:14 29.51547 37.78027 36005 ft 410 kts 271°
2026-05-06 18:14 29.51987 37.71497 36018 ft 410 kts 271°
2026-05-06 18:15 29.52425 37.64951 36013 ft 412 kts 271°
2026-05-06 18:15 29.52861 37.58398 36010 ft 412 kts 271°
2026-05-06 18:16 29.53293 37.51845 36001 ft 411 kts 271°
2026-05-06 18:16 29.53721 37.45291 36004 ft 412 kts 271°
2026-05-06 18:17 29.54148 37.38708 35989 ft 414 kts 271°
2026-05-06 18:17 29.54501 37.33232 36006 ft 414 kts 271°
2026-05-06 18:18 29.54923 37.26652 36001 ft 413 kts 271°
2026-05-06 18:18 29.55340 37.20076 36012 ft 412 kts 271°
2026-05-06 18:19 29.55754 37.13506 36005 ft 413 kts 271°
2026-05-06 18:19 29.56165 37.06932 36004 ft 413 kts 271°
2026-05-06 18:20 29.56573 37.00359 36004 ft 413 kts 271°
2026-05-06 18:20 29.56977 36.93795 36000 ft 411 kts 271°
2026-05-06 18:21 29.57376 36.87248 35997 ft 411 kts 271°
2026-05-06 18:21 29.57773 36.80694 35988 ft 411 kts 271°
2026-05-06 18:22 29.58166 36.74144 36000 ft 411 kts 271°
2026-05-06 18:22 29.58556 36.67602 35988 ft 410 kts 271°
2026-05-06 18:23 29.58941 36.61069 35984 ft 410 kts 271°
2026-05-06 18:23 29.59324 36.54531 35986 ft 410 kts 271°
2026-05-06 18:24 29.59704 36.47993 35985 ft 410 kts 271°
2026-05-06 18:24 29.60080 36.41458 35981 ft 410 kts 271°
2026-05-06 18:25 29.60453 36.34925 35990 ft 410 kts 271°
2026-05-06 18:25 29.60822 36.28391 35991 ft 410 kts 271°
2026-05-06 18:26 29.61189 36.21853 35997 ft 410 kts 271°
2026-05-06 18:26 29.61553 36.15309 35989 ft 410 kts 271°
2026-05-06 18:27 29.61913 36.08766 35988 ft 410 kts 271°
2026-05-06 18:27 29.62270 36.02223 35996 ft 410 kts 271°
2026-05-06 18:28 29.62625 35.95678 35998 ft 411 kts 271°
2026-05-06 18:28 29.62976 35.89127 36003 ft 410 kts 271°
2026-05-06 18:29 29.63323 35.82581 36008 ft 410 kts 271°
2026-05-06 18:29 29.63668 35.76034 36003 ft 410 kts 271°
2026-05-06 18:30 29.64007 35.69523 36014 ft 411 kts 271°
2026-05-06 18:30 29.64346 35.62960 36027 ft 412 kts 271°
2026-05-06 18:31 29.64681 35.56399 36003 ft 411 kts 271°
2026-05-06 18:31 29.65014 35.49826 36029 ft 412 kts 271°
2026-05-06 18:32 29.65344 35.43244 36019 ft 413 kts 271°
2026-05-06 18:32 29.65672 35.36654 36022 ft 413 kts 271°
2026-05-06 18:33 29.65996 35.30064 36017 ft 413 kts 271°
2026-05-06 18:33 29.66315 35.23483 36033 ft 413 kts 271°
2026-05-06 18:34 29.66632 35.16895 36015 ft 413 kts 271°
2026-05-06 18:34 29.66947 35.10304 36026 ft 413 kts 271°
2026-05-06 18:35 29.67258 35.03712 36001 ft 413 kts 271°
2026-05-06 18:35 29.67565 34.97123 35999 ft 413 kts 271°
2026-05-06 18:36 29.67870 34.90527 35997 ft 414 kts 271°
2026-05-06 18:36 29.68171 34.83928 36009 ft 413 kts 271°
2026-05-06 18:37 29.68469 34.77333 36025 ft 413 kts 271°
2026-05-06 18:37 29.68764 34.70736 36046 ft 413 kts 271°
2026-05-06 18:38 29.69054 34.64153 36022 ft 412 kts 271°
2026-05-06 18:38 29.69342 34.57568 36039 ft 412 kts 271°
2026-05-06 18:39 29.69626 34.50984 36046 ft 412 kts 271°
2026-05-06 18:40 29.70046 34.41108 36050 ft 411 kts 271°
2026-05-06 18:40 29.70320 34.34582 36050 ft 412 kts 271°
2026-05-06 18:41 29.70592 34.28008 36049 ft 412 kts 271°
2026-05-06 18:41 29.70862 34.21431 36065 ft 412 kts 271°
2026-05-06 18:42 29.71128 34.14850 36062 ft 413 kts 271°
2026-05-06 18:42 29.71391 34.08261 36061 ft 412 kts 271°
2026-05-06 18:43 29.71651 34.01667 36061 ft 413 kts 271°
2026-05-06 18:43 29.71908 33.95078 36070 ft 413 kts 271°
2026-05-06 18:44 29.72162 33.88468 36069 ft 414 kts 271°
2026-05-06 18:44 29.72413 33.81853 36068 ft 414 kts 271°
2026-05-06 18:45 29.72661 33.75232 36072 ft 414 kts 271°
2026-05-06 18:45 29.72905 33.68619 36073 ft 414 kts 271°
2026-05-06 18:46 29.73147 33.61995 36073 ft 415 kts 271°
2026-05-06 18:46 29.73386 33.55359 36072 ft 415 kts 271°
2026-05-06 18:47 29.73621 33.48724 36069 ft 415 kts 271°
2026-05-06 18:47 29.73853 33.42089 36073 ft 415 kts 271°
2026-05-06 18:48 29.74082 33.35455 36070 ft 415 kts 271°
2026-05-06 18:48 29.74305 33.28861 36071 ft 415 kts 271°
2026-05-06 18:49 29.74528 33.22220 36069 ft 415 kts 270°
2026-05-06 18:49 29.74747 33.15580 36072 ft 415 kts 271°
2026-05-06 18:50 29.74964 33.08931 36070 ft 416 kts 271°
2026-05-06 18:50 29.75179 33.02274 36059 ft 416 kts 271°
2026-05-06 18:51 29.75390 32.95618 36058 ft 416 kts 271°
2026-05-06 18:51 29.75597 32.88958 36057 ft 416 kts 270°
2026-05-06 18:52 29.75802 32.82295 36052 ft 417 kts 271°
2026-05-06 18:52 29.76003 32.75625 36026 ft 417 kts 270°
2026-05-06 18:53 29.76202 32.68955 36039 ft 417 kts 270°
2026-05-06 18:53 29.76396 32.62292 36041 ft 417 kts 270°
2026-05-06 18:54 29.76588 32.55620 36046 ft 417 kts 270°
2026-05-06 18:54 29.76777 32.48946 36045 ft 417 kts 270°
2026-05-06 18:55 29.76962 32.42270 36046 ft 417 kts 270°
2026-05-06 18:55 29.77144 32.35593 36050 ft 417 kts 270°
2026-05-06 18:56 29.77323 32.28908 36053 ft 419 kts 270°
2026-05-06 18:56 29.77499 32.22207 36055 ft 419 kts 270°
2026-05-06 18:57 29.77672 32.15507 36053 ft 419 kts 270°
2026-05-06 18:57 29.77842 32.08803 36050 ft 419 kts 270°
2026-05-06 18:58 29.78008 32.02095 36053 ft 420 kts 270°
2026-05-06 18:58 29.78172 31.95379 36058 ft 420 kts 270°
2026-05-06 18:59 29.78524 31.88677 36043 ft 421 kts 281°
2026-05-06 18:59 29.79484 31.85540 36070 ft 424 kts 294°
2026-05-06 18:59 29.81046 31.82637 36055 ft 429 kts 302°
2026-05-06 19:00 29.84559 31.77048 36045 ft 432 kts 303°
2026-05-06 19:00 29.88143 31.71494 36057 ft 432 kts 303°
2026-05-06 19:01 29.91740 31.65954 36060 ft 432 kts 303°
2026-05-06 19:01 29.95329 31.60404 36060 ft 432 kts 303°
2026-05-06 19:02 29.98918 31.54848 36074 ft 432 kts 303°
2026-05-06 19:02 30.02504 31.49289 36077 ft 432 kts 303°
2026-05-06 19:03 30.06093 31.43717 36074 ft 432 kts 303°
2026-05-06 19:03 30.09771 31.38219 36066 ft 435 kts 310°
2026-05-06 19:04 30.13871 31.33072 36061 ft 435 kts 308°
2026-05-06 19:04 30.17908 31.27869 36078 ft 434 kts 308°
2026-05-06 19:05 30.21927 31.22665 36084 ft 434 kts 308°
2026-05-06 19:05 30.25265 31.18335 36083 ft 434 kts 308°
2026-05-06 19:06 30.29281 31.13120 36081 ft 434 kts 308°
2026-05-06 19:06 30.33297 31.07899 36085 ft 434 kts 308°
2026-05-06 19:07 30.37307 31.02677 36089 ft 434 kts 308°
2026-05-06 19:07 30.41317 30.97448 36088 ft 434 kts 308°
2026-05-06 19:08 30.45976 30.91365 36100 ft 434 kts 308°
2026-05-06 19:08 30.49331 30.86978 36099 ft 434 kts 308°
2026-05-06 19:09 30.53335 30.81737 36120 ft 434 kts 308°
2026-05-06 19:09 30.57321 30.76512 36099 ft 432 kts 308°
2026-05-06 19:10 30.61300 30.71288 36098 ft 432 kts 308°
2026-05-06 19:10 30.65278 30.66059 36098 ft 432 kts 308°
2026-05-06 19:11 30.69229 30.60860 36107 ft 432 kts 308°
2026-05-06 19:11 30.73205 30.55620 36098 ft 432 kts 308°
2026-05-06 19:12 30.77175 30.50380 36101 ft 432 kts 308°
2026-05-06 19:12 30.81147 30.45131 36098 ft 432 kts 308°
2026-05-06 19:13 30.85116 30.39879 36099 ft 432 kts 308°
2026-05-06 19:13 30.89082 30.34624 36100 ft 432 kts 308°
2026-05-06 19:14 30.93042 30.29369 36094 ft 431 kts 308°
2026-05-06 19:14 30.96989 30.24125 36109 ft 431 kts 308°
2026-05-06 19:15 31.00934 30.18875 36106 ft 431 kts 308°
2026-05-06 19:15 31.04881 30.13616 36107 ft 431 kts 308°
2026-05-06 19:16 31.08823 30.08358 36104 ft 430 kts 309°
2026-05-06 19:16 31.12758 30.03102 36101 ft 430 kts 308°
2026-05-06 19:17 31.16665 29.97878 36107 ft 430 kts 308°
2026-05-06 19:17 31.20332 29.92392 36121 ft 428 kts 303°
2026-05-06 19:18 31.23825 29.86752 36103 ft 428 kts 304°
2026-05-06 19:18 31.27332 29.81148 36120 ft 429 kts 304°
2026-05-06 19:19 31.30789 29.75623 36102 ft 427 kts 304°
2026-05-06 19:19 31.34299 29.70008 36105 ft 428 kts 304°
2026-05-06 19:20 31.37624 29.64681 36105 ft 428 kts 304°
2026-05-06 19:20 31.41128 29.59059 36105 ft 428 kts 304°
2026-05-06 19:21 31.44612 29.53463 36110 ft 428 kts 304°
2026-05-06 19:21 31.48112 29.47831 36107 ft 427 kts 304°
2026-05-06 19:22 31.51604 29.42205 36108 ft 427 kts 304°
2026-05-06 19:22 31.55097 29.36569 36108 ft 427 kts 304°
2026-05-06 19:23 31.58580 29.30934 36108 ft 427 kts 304°
2026-05-06 19:23 31.62052 29.25271 36108 ft 427 kts 304°
2026-05-06 19:24 31.65529 29.19598 36112 ft 428 kts 304°
2026-05-06 19:24 31.69006 29.13915 36124 ft 428 kts 304°
2026-05-06 19:25 31.72481 29.08262 36108 ft 428 kts 307°
2026-05-06 19:25 31.74623 29.05835 36116 ft 429 kts 319°
2026-05-06 19:25 31.76930 29.03600 36090 ft 431 kts 317°
2026-05-06 19:26 31.81544 28.99093 36119 ft 431 kts 318°
2026-05-06 19:26 31.86180 28.94617 36108 ft 431 kts 318°
2026-05-06 19:27 31.90817 28.90141 36115 ft 431 kts 318°
2026-05-06 19:27 31.95455 28.85660 36113 ft 431 kts 318°
2026-05-06 19:28 32.00092 28.81173 36109 ft 431 kts 318°
2026-05-06 19:28 32.04696 28.76712 36117 ft 431 kts 318°
2026-05-06 19:29 32.09328 28.72218 36117 ft 431 kts 318°
2026-05-06 19:29 32.13958 28.67720 36114 ft 431 kts 318°
2026-05-06 19:30 32.18589 28.63215 36114 ft 431 kts 318°
2026-05-06 19:30 32.23212 28.58712 36114 ft 431 kts 318°
2026-05-06 19:31 32.27835 28.54201 36119 ft 431 kts 318°
2026-05-06 19:31 32.34772 28.47423 36119 ft 432 kts 319°
2026-05-06 19:32 32.39405 28.42888 36114 ft 432 kts 318°
2026-05-06 19:32 32.44037 28.38348 36114 ft 432 kts 318°
2026-05-06 19:33 32.48669 28.33802 36114 ft 432 kts 319°
2026-05-06 19:33 32.53299 28.29250 36116 ft 432 kts 318°
2026-05-06 19:34 32.57926 28.24696 36113 ft 432 kts 318°
2026-05-06 19:34 32.62552 28.20137 36112 ft 432 kts 318°
2026-05-06 19:35 32.67175 28.15574 36116 ft 432 kts 318°
2026-05-06 19:35 32.71800 28.11003 36113 ft 432 kts 318°
2026-05-06 19:36 32.76421 28.06430 36119 ft 432 kts 318°
2026-05-06 19:36 32.81041 28.01850 36116 ft 432 kts 318°
2026-05-06 19:37 32.85657 27.97268 36116 ft 432 kts 318°
2026-05-06 19:37 32.89494 27.93455 36116 ft 432 kts 318°
2026-05-06 19:38 32.94888 27.88088 36128 ft 432 kts 318°
2026-05-06 19:38 32.99504 27.83486 36117 ft 433 kts 318°
2026-05-06 19:39 33.04088 27.78911 36116 ft 433 kts 318°
2026-05-06 19:39 33.08706 27.74295 36116 ft 433 kts 318°
2026-05-06 19:40 33.13320 27.69677 36117 ft 433 kts 318°
2026-05-06 19:40 33.17932 27.65054 36116 ft 433 kts 318°
2026-05-06 19:41 33.22540 27.60428 36115 ft 433 kts 318°
2026-05-06 19:41 33.27147 27.55797 36126 ft 433 kts 318°
2026-05-06 19:42 33.31751 27.51163 36115 ft 432 kts 318°
2026-05-06 19:42 33.36349 27.46528 36118 ft 432 kts 318°
2026-05-06 19:43 33.40943 27.41889 36116 ft 432 kts 318°
2026-05-06 19:43 33.45537 27.37245 36116 ft 432 kts 318°
2026-05-06 19:44 33.50128 27.32597 36115 ft 432 kts 318°
2026-05-06 19:44 33.54718 27.27942 36116 ft 432 kts 318°
2026-05-06 19:45 33.59307 27.23283 36127 ft 432 kts 318°
2026-05-06 19:45 33.63881 27.18633 36116 ft 431 kts 318°
2026-05-06 19:46 33.68426 27.14004 36115 ft 432 kts 318°
2026-05-06 19:46 33.73005 27.09334 36116 ft 432 kts 318°
2026-05-06 19:47 33.77584 27.04658 36116 ft 432 kts 318°
2026-05-06 19:47 33.82157 26.99982 36116 ft 432 kts 318°
2026-05-06 19:48 33.86733 26.95297 36113 ft 432 kts 318°
2026-05-06 19:48 33.91305 26.90610 36118 ft 431 kts 318°
2026-05-06 19:49 33.95861 26.85932 36113 ft 431 kts 318°
2026-05-06 19:49 34.00552 26.81440 36093 ft 433 kts 330°
2026-05-06 19:50 34.05973 26.78243 36087 ft 434 kts 332°
2026-05-06 19:50 34.11410 26.75053 36116 ft 435 kts 332°
2026-05-06 19:51 34.16857 26.71884 36118 ft 435 kts 332°
2026-05-06 19:51 34.22296 26.68717 36110 ft 433 kts 332°
2026-05-06 19:52 34.27683 26.65577 36112 ft 433 kts 332°
2026-05-06 19:52 34.33109 26.62410 36113 ft 433 kts 332°
2026-05-06 19:53 34.38533 26.59237 36111 ft 433 kts 332°
2026-05-06 19:53 34.43958 26.56063 36104 ft 433 kts 332°
2026-05-06 19:54 34.49387 26.52880 36115 ft 434 kts 332°
2026-05-06 19:54 34.54816 26.49692 36110 ft 434 kts 332°
2026-05-06 19:55 34.59330 26.47038 36108 ft 434 kts 332°
2026-05-06 19:55 34.65674 26.43303 36109 ft 434 kts 332°
2026-05-06 19:56 34.70184 26.40643 36106 ft 434 kts 332°
2026-05-06 19:56 34.75609 26.37440 36104 ft 432 kts 332°
2026-05-06 19:57 34.81017 26.34243 36104 ft 432 kts 332°
2026-05-06 19:57 34.86428 26.31038 36103 ft 432 kts 332°
2026-05-06 19:58 34.91838 26.27830 36103 ft 432 kts 332°
2026-05-06 19:58 34.97251 26.24615 36100 ft 433 kts 332°
2026-05-06 19:59 35.02670 26.21392 36101 ft 433 kts 332°
2026-05-06 19:59 35.07992 26.17979 36104 ft 431 kts 326°
2026-05-06 20:00 35.13111 26.14148 36100 ft 432 kts 327°
2026-05-06 20:00 35.18260 26.10365 36102 ft 432 kts 327°
2026-05-06 20:01 35.23396 26.06599 35366 ft 429 kts 327°
2026-05-06 20:01 35.25960 26.04717 34683 ft 430 kts 327°
2026-05-06 20:01 35.28523 26.02835 33977 ft 430 kts 327°
2026-05-06 20:02 35.31092 26.00947 33139 ft 431 kts 327°
2026-05-06 20:02 35.33661 25.99056 32361 ft 431 kts 327°
2026-05-06 20:02 35.36230 25.97166 31623 ft 431 kts 328°
2026-05-06 20:02 35.38799 25.95272 30863 ft 431 kts 328°
2026-05-06 20:03 35.41374 25.93374 30033 ft 433 kts 328°
2026-05-06 20:03 35.43960 25.91466 29090 ft 435 kts 328°
2026-05-06 20:03 35.46561 25.89546 28222 ft 436 kts 328°
2026-05-06 20:03 35.49158 25.87627 27364 ft 436 kts 328°
2026-05-06 20:04 35.51757 25.85705 26548 ft 438 kts 328°
2026-05-06 20:04 35.54392 25.83754 25862 ft 445 kts 328°
2026-05-06 20:04 35.57014 25.81812 25189 ft 447 kts 328°
2026-05-06 20:04 35.59672 25.79842 24516 ft 445 kts 328°
2026-05-06 20:05 35.62307 25.77888 23840 ft 440 kts 328°
2026-05-06 20:05 35.64922 25.75945 23073 ft 437 kts 328°
2026-05-06 20:05 35.67513 25.74020 22373 ft 433 kts 328°
2026-05-06 20:05 35.70075 25.72116 21715 ft 428 kts 328°
2026-05-06 20:06 35.72610 25.70229 21073 ft 423 kts 328°
2026-05-06 20:06 35.75117 25.68362 20430 ft 419 kts 328°
2026-05-06 20:06 35.77601 25.66511 19807 ft 416 kts 328°
2026-05-06 20:06 35.80067 25.64673 19184 ft 412 kts 328°
2026-05-06 20:07 35.82508 25.62850 18560 ft 409 kts 328°
2026-05-06 20:07 35.84934 25.61038 17880 ft 406 kts 328°
2026-05-06 20:07 35.87340 25.59241 17247 ft 402 kts 328°
2026-05-06 20:07 35.89722 25.57459 16639 ft 398 kts 328°
2026-05-06 20:08 35.92082 25.55693 16049 ft 395 kts 328°
2026-05-06 20:08 35.94423 25.53939 15458 ft 392 kts 328°
2026-05-06 20:08 35.96747 25.52197 14875 ft 390 kts 328°
2026-05-06 20:08 35.99061 25.50462 14291 ft 388 kts 328°
2026-05-06 20:09 36.01363 25.48735 13681 ft 387 kts 328°
2026-05-06 20:09 36.03659 25.47011 13052 ft 385 kts 328°
2026-05-06 20:09 36.05940 25.45297 12480 ft 382 kts 328°
2026-05-06 20:09 36.08198 25.43599 12077 ft 376 kts 328°
2026-05-06 20:10 36.10410 25.41973 11865 ft 364 kts 333°
2026-05-06 20:10 36.12791 25.41079 11632 ft 355 kts 353°
2026-05-06 20:10 36.15218 25.41210 11488 ft 345 kts
2026-05-06 20:10 36.17556 25.41632 11337 ft 334 kts
2026-05-06 20:11 36.19820 25.42059 11165 ft 325 kts
2026-05-06 20:11 36.22019 25.42488 11007 ft 315 kts
2026-05-06 20:11 36.24126 25.42908 10856 ft 306 kts
2026-05-06 20:11 36.26199 25.43325 10715 ft 297 kts
2026-05-06 20:12 36.28239 25.43739 10577 ft 289 kts
2026-05-06 20:12 36.30164 25.44130 10448 ft 280 kts
2026-05-06 20:12 36.32059 25.44516 10317 ft 272 kts
2026-05-06 20:12 36.33893 25.44890 10187 ft 263 kts
2026-05-06 20:13 36.35684 25.45254 9975 ft 259 kts
2026-05-06 20:13 36.37483 25.45622 9674 ft 265 kts
2026-05-06 20:13 36.39320 25.45996 9361 ft 269 kts
2026-05-06 20:13 36.41159 25.46372 8969 ft 267 kts
2026-05-06 20:14 36.42987 25.46746 8593 ft 265 kts
2026-05-06 20:14 36.44803 25.47117 8193 ft 264 kts
2026-05-06 20:14 36.46605 25.47485 7821 ft 262 kts
2026-05-06 20:14 36.48397 25.47852 7441 ft 260 kts
2026-05-06 20:15 36.50178 25.48217 7073 ft 259 kts
2026-05-06 20:15 36.51949 25.48579 6700 ft 257 kts
2026-05-06 20:15 36.53707 25.48939 6336 ft 256 kts
2026-05-06 20:15 36.55461 25.49298 5922 ft 255 kts
2026-05-06 20:16 36.57210 25.49657 5526 ft 255 kts
2026-05-06 20:16 36.58956 25.50015 5135 ft 254 kts
2026-05-06 20:16 36.60698 25.50373 4760 ft 253 kts
2026-05-06 20:16 36.62439 25.50717 4342 ft 253 kts
2026-05-06 20:17 36.64153 25.50459 3967 ft 248 kts 336°
2026-05-06 20:17 36.65550 25.49250 3653 ft 246 kts 310°
2026-05-06 20:17 36.66358 25.47403 3336 ft 245 kts 284°
2026-05-06 20:17 36.66444 25.45308 3043 ft 243 kts 259°
2026-05-06 20:18 36.65950 25.43298 3024 ft 245 kts 252°
2026-05-06 20:18 36.65392 25.41285 2995 ft 246 kts 251°
2026-05-06 20:18 36.64733 25.39327 2972 ft 246 kts 237°
2026-05-06 20:18 36.63492 25.38020 2974 ft 234 kts 203°
2026-05-06 20:19 36.61938 25.37753 2975 ft 225 kts 173°
2026-05-06 20:19 36.60444 25.38318 3010 ft 226 kts 162°
2026-05-06 20:19 36.58971 25.38984 3048 ft 219 kts 162°
2026-05-06 20:19 36.57607 25.39610 3052 ft 201 kts 162°
2026-05-06 20:20 36.56343 25.40195 2985 ft 187 kts 162°
2026-05-06 20:20 36.55139 25.40757 2946 ft 183 kts 162°
2026-05-06 20:20 36.53941 25.41318 2853 ft 184 kts 162°
2026-05-06 20:20 36.52742 25.41881 2648 ft 184 kts 162°
2026-05-06 20:21 36.51555 25.42439 2402 ft 178 kts 162°
2026-05-06 20:21 36.50426 25.42971 2183 ft 167 kts 162°
2026-05-06 20:21 36.49366 25.43470 1978 ft 160 kts 162°
2026-05-06 20:21 36.48339 25.43954 1729 ft 157 kts 162°
2026-05-06 20:22 36.47324 25.44432 1486 ft 155 kts 162°
2026-05-06 20:22 36.46316 25.44906 1272 ft 154 kts 161°
2026-05-06 20:22 36.45317 25.45377 1104 ft 153 kts 161°
2026-05-06 20:22 36.44321 25.45855 1062 ft 153 kts 160°
2026-05-06 20:23 36.43325 25.46324 830 ft 153 kts 161°
2026-05-06 20:23 36.42323 25.46782 508 ft 155 kts 160°
2026-05-06 20:23 36.41322 25.47251 233 ft 156 kts 160°
2026-05-06 20:23 36.40314 25.47728 93 ft 137 kts 159°
2026-05-06 20:24 36.39654 25.48041 72 ft 73 kts 159°
2026-05-06 20:24 36.39318 25.48201 65 ft 46 kts 159°
2026-05-06 20:24 36.39075 25.48312 60 ft 13 kts 170°
2026-05-06 20:24 36.39008 25.48235 55 ft 17 kts 254°
2026-05-06 20:25 36.39066 25.48149 61 ft 14 kts 340°
2026-05-06 20:25 36.39188 25.48093 64 ft 26 kts 339°
2026-05-06 20:25 36.39397 25.47995 72 ft 35 kts 339°
2026-05-06 20:25 36.39627 25.47884 82 ft 35 kts 339°
2026-05-06 20:26 36.39853 25.47779 90 ft 34 kts 339°
2026-05-06 20:26 36.40075 25.47673 89 ft 29 kts 339°
2026-05-06 20:26 36.40128 25.47583 90 ft 14 kts 262°
2026-05-06 20:26 36.40177 25.47522 92 ft 10 kts 345°
2026-05-06 20:27 36.40224 25.47491 92 ft 5 kts 311°
2026-05-06 20:27 36.40238 25.47468 92 ft 1 kts 279°
2026-05-06 20:27 36.40235 25.47457 95 ft 4 kts 249°
2026-05-06 20:27 36.40232 25.47446 92 ft 2 kts 249°
2026-05-06 20:28 36.40231 25.47443 92 ft 0 kts 249°